Погода в Могилёве

Беларусь     53°53′40″N   30°19′50″E
темп.,
°C
ветер,
м/с
пор.,
м/с
влажн.,
%
обл.,
%
осадки,
мм/ч
давл.,
гПа
погр.,
м
25 июня, сб
сб2500:00+16ссв33875 0.0 101731
03:00+15всв23875 0.0 101823
06:00+15в23875 0.0 101856
09:00+20всв34725 0.0 1019316
12:00+24всв44635 0.0 1019866
15:00+25всв46625 0.0 10191545
18:00+24всв35716 0.0 10191183
21:00+20всв348533 0.0 101946
26 июня, вс
вс2600:00+18всв33855 0.0 102030
03:00+16всв33900 0.0 102134
06:00+16в35880 0.0 102295
09:00+21вюв35740 0.0 1023371
12:00+25вюв46640 0.0 10231026
15:00+26вюв46616 0.0 10231734
18:00+26в24671 0.0 10221217
21:00+21всв22814 0.2 102311
27 июня, пн
пн2700:00+20св118294 0.0 102311
03:00+20св2379100 0.0 102442
06:00+20св338399 0.0 102464
09:00+21всв2485100 0.0 1025149
12:00+25св346876 0.0 1024565
15:00+28св33585 0.0 10231280
18:00+28св23636 0.0 10221567
21:00+23с23805 0.3 102221
28 июня, вт
вт2800:00+20ссв33835 0.0 102331
03:00+19с338216 0.0 102231
06:00+19с338444 0.0 102250
09:00+23с237645 0.0 1022221
12:00+27ссв346220 0.0 1022766
15:00+29св44580 0.0 10211180
18:00+28в23630 0.0 1021845
21:00+23вюв22770 0.4 102111
29 июня, ср
ср2900:00+19в349399 2.7 102252
03:00+19в2292100 3.1 102214
06:00+18в359456 0.1 1022127
09:00+22вюв458747 0.5 1022400
12:00+24вюв557546 0.0 1022960
15:00+24вюв556999 0.1 10231258
18:00+24в457497 0.0 1022950
21:00+19в49865 0.0 1023223